Location: ??????
(38.0677°N, 22.9870°E)
Time: 10:09:56
(UTC+00:00)

Cosmos 1908 Rocket - Pass Details

Date: 23 May 2024
Orbit: 602 x 629 km, 82.5° (Epoch: 18 June)

Event Time Altitude Azimuth Distance (km) Brightness Sun altitude
Rises 00:16:47 0° 348° (NNW) 2,911 7.7 -25.7°
Reaches altitude 10° 00:19:03 10° 344° (NNW) 1,996 6.7 -25.5°
Enters shadow 00:22:28 46° 312° (NW) 832 4.2 -25.1°
